This demonstration page uses our WeatherBlox Daily Observations layout. Learn more.

Left ArrowRight Arrow

38.20091, -84.87328

Hourly Observations for December 1, 2022

Temp ( °F °C ) Dew Point ( °F °C ) Humidity (%) Winds ( mph kmh ) Pressure ( in mb ) Visibility ( mi km ) Precip ( " mm )
12:53 am 00:53 Clear 30 -1.1 17 -8.3 58 58 W 7 11 30.42 1030 10 16 0.00 0.00
1:53 am 01:53 Clear 29 -1.7 17 -8.3 61 61 W 5 7 30.43 1031 10 16 0.00 0.00
2:53 am 02:53 Clear 27 -2.8 16 -8.9 63 63 W 5 7 30.45 1031 10 16 0.00 0.00
3:53 am 03:53 Clear 27 -2.8 15 -9.4 60 60 VRB 3 6 30.47 1032 10 16 0.00 0.00
4:53 am 04:53 Clear 25 -3.9 15 -9.4 65 65 SSW 3 6 30.49 1033 10 16 0.00 0.00
5:53 am 05:53 Clear 22 -5.6 15 -9.4 74 74 WSW 5 7 30.52 1033 10 16 0.00 0.00
6:53 am 06:53 Clear 20 -6.7 15 -9.4 81 81 SW 5 7 30.54 1034 10 16 0.00 0.00
7:53 am 07:53 Sunny 20 -6.7 15 -9.4 81 81 Calm 30.56 1035 10 16 0.00 0.00
8:53 am 08:53 Sunny 26 -3.3 18 -7.8 71 71 WSW 5 7 30.58 1035 10 16 0.00 0.00
9:53 am 09:53 Sunny 30 -1.1 17 -8.3 58 58 NNW 3 6 30.58 1036 10 16 0.00 0.00
10:53 am 10:53 Sunny 32 0 17 -8.3 53 53 Calm 30.58 1036 10 16 0.00 0.00
11:53 am 11:53 Sunny 35 1.7 17 -8.3 47 47 VRB 3 6 30.57 1035 10 16 0.00 0.00
12:53 pm 12:53 Sunny 37 2.8 17 -8.3 44 44 E 5 7 30.54 1034 10 16 0.00 0.00
1:53 pm 13:53 Sunny 40 4.4 19 -7.2 43 43 ENE 5 7 30.51 1033 10 16 0.00 0.00
2:53 pm 14:53 Sunny 39 3.9 17 -8.3 40 40 Calm 30.51 1033 10 16 0.00 0.00
3:48 pm 15:48 Hazy 39 4 18 -8 41 41 SE 6 9 30.50 1033 2 3 0.00 0.00
3:53 pm 15:53 Hazy 39 3.9 17 -8.3 40 40 SE 5 7 30.49 1033 2 3 0.00 0.00
4:02 pm 16:02 Sunny 40 4.4 18 -7.8 41 41 SE 5 7 30.50 1033 10 16 0.00 0.00
4:53 pm 16:53 Sunny 38 3.3 17 -8.3 42 42 SE 3 6 30.48 1032 10 16 0.00 0.00
5:53 pm 17:53 Clear 37 2.8 17 -8.3 44 44 SE 3 6 30.47 1032 10 16 0.00 0.00
6:53 pm 18:53 Clear 30 -1.1 19 -7.2 63 63 Calm 30.46 1031 10 16 0.00 0.00
8:53 pm 20:53 Clear 28 -2.2 20 -6.7 71 71 Calm 30.43 1031 10 16 0.00 0.00
9:53 pm 21:53 Clear 27 -2.8 19 -7.2 72 72 Calm 30.41 1030 10 16 0.00 0.00
10:53 pm 22:53 Clear 26 -3.3 20 -6.7 77 77 Calm 30.39 1029 10 16 0.00 0.00
11:53 pm 23:53 Clear 24 -4.4 19 -7.2 81 81 Calm 30.38 1029 10 16 0.00 0.00

Powered by AerisWeather